Location: Ravensburg
(47.7866°N, 9.6124°E)
Time: 08:50:19
(UTC+02:00)

YUBILEINY - Pass Details

Date: 23 March 2026
Orbit: 1477 x 1509 km, 82.5° (Epoch: 17 April)

Event Time Altitude Azimuth Distance (km) Brightness Sun altitude
Rises 05:05:28 0° 341° (NNW) 4,614 ? -13.0°
Reaches altitude 10° 05:09:38 10° 323° (NW) 3,627 ? -12.3°
Maximum altitude 05:14:33 17° 287° (WNW) 3,112 ? -11.5°
Enters shadow 05:18:06 13° 260° (W) 3,381 ? -10.9°
